This demonstration page uses our WeatherBlox Daily Observations layout. Learn more.

Left ArrowRight Arrow

39.08367, -84.50855

Hourly Observations for December 30, 2016

Temp ( °F °C ) Dew Point ( °F °C ) Humidity (%) Winds ( mph kmh ) Pressure ( in mb ) Visibility ( mi km ) Precip ( " mm )
12:53 am 00:53 Cloudy 35 1.7 35 1.7 100 100 W 13 20 30.02 1017 10 16 0.00 0.00
1:53 am 01:53 Cloudy 35 1.7 27 -2.8 72 72 W 17 28 30.01 1016 10 16 0.00 0.03
2:53 am 02:53 Cloudy 34 1.1 24 -4.4 67 67 W 14 22 30.04 1017 10 16 0.00 0.03
3:53 am 03:53 Cloudy 34 1.1 23 -5 64 64 WNW 13 20 30.04 1017 10 16 0.00 0.00
4:53 am 04:53 Cloudy 34 1.1 24 -4.4 67 67 W 13 20 30.03 1017 10 16 0.00 0.00
5:53 am 05:53 Cloudy with Light Snow 34 1.1 24 -4.4 67 67 WNW 8 13 30.04 1017 9 14 0.00 0.03
6:53 am 06:53 Cloudy 33 0.6 24 -4.4 70 70 WNW 7 11 30.06 1018 10 16 0.00 0.03
6:55 am 06:55 Cloudy 33 0.6 24 -4.4 70 70 WNW 7 11 30.06 1018 10 16 0.00 0.00
7:53 am 07:53 Cloudy 33 0.6 21 -6.1 61 61 WNW 10 17 30.10 1019 10 16 0.00 0.03
8:53 am 08:53 Cloudy 32 0 20 -6.7 61 61 W 10 17 30.12 1020 10 16 0.00 0.00
9:53 am 09:53 Partly Cloudy 34 1.1 20 -6.7 56 56 NW 13 20 30.15 1021 10 16 0.00 0.00
10:53 am 10:53 Partly Cloudy 35 1.7 19 -7.2 52 52 W 16 26 30.17 1022 10 16 0.00 0.00
11:53 am 11:53 Partly Cloudy 35 1.7 20 -6.7 54 54 WNW 12 19 30.17 1022 10 16 0.00 0.00
12:53 pm 12:53 Sunny 36 2.2 21 -6.1 55 55 W 13 20 30.14 1021 10 16 0.00 0.00
1:53 pm 13:53 Sunny 38 3.3 19 -7.2 46 46 W 12 19 30.13 1020 10 16 0.00 0.00
2:53 pm 14:53 Sunny 38 3.3 19 -7.2 46 46 SW 13 20 30.12 1020 10 16 0.00 0.00
3:53 pm 15:53 Sunny 39 3.9 18 -7.8 43 43 W 12 19 30.13 1020 10 16 0.00 0.00
4:53 pm 16:53 Sunny 37 2.8 19 -7.2 48 48 SW 12 19 30.13 1020 10 16 0.00 0.00
5:53 pm 17:53 Clear 33 0.6 19 -7.2 56 56 SW 10 17 30.13 1020 10 16 0.00 0.00
6:53 pm 18:53 Mostly Clear 29 -1.7 19 -7.2 66 66 S 6 9 30.12 1020 10 16 0.00 0.00
7:53 pm 19:53 Clear 26 -3.3 20 -6.7 78 78 Calm 30.12 1020 10 16 0.00 0.00
8:53 pm 20:53 Clear 27 -2.8 21 -6.1 78 78 SSW 6 9 30.12 1020 10 16 0.00 0.00
9:53 pm 21:53 Clear 28 -2.2 20 -6.7 72 72 S 7 11 30.08 1019 10 16 0.00 0.00
10:53 pm 22:53 Clear 28 -2.2 21 -6.1 75 75 S 7 11 30.06 1018 10 16 0.00 0.00
11:53 pm 23:53 Clear 29 -1.7 21 -6.1 72 72 S 8 13 30.05 1018 10 16 0.00 0.00

Powered by AerisWeather